Location: Unspecified
(0.0000°N, 0.0000°E)
Time: 16:44:36
(UTC+00:00)

S-56A Canister/Altair - Pass Details

Date: 17 December 2018
Orbit: 633 x 2500 km, 38.9° (Epoch: 21 March)

Event Time Altitude Azimuth Distance (km) Brightness Sun altitude
Rises 08:25:56 0° 328° (NNW) 6,001 11.6 34.0°
Reaches altitude 10° 08:30:26 10° 337° (NNW) 5,102 11.4 34.9°
Maximum altitude 08:43:28 35° 37° (NE) 3,469 11.3 37.8°
Drops below altitude 10° 08:55:11 10° 96° (E) 4,637 12.5 40.3°
Sets 08:58:57 0° 105° (ESE) 5,414 12.6 41.1°
